Find Starlink 11292

NORAD ID: 61203 Int'l Des: 2024-171 Owner: SPXS Country: US Constellation: starlink operational
別名: STARLINK-11292 [DTC] celestrak
LEOCIRCULAR

現在のビュー

3D地球を読み込み中...

About Starlink 11292

Starlink 11292 (NORAD 61203) is a starlink constellation satellite (v2 mini d2c) launched Sep 20, 2024 by SPXS of US. It operates in LEO, CIRCULAR orbit with a mass of 960.00 kg.

次回通過

Passes for default location (London). Set your location on the main map for personalized predictions.

高度履歴

Loading altitude history...

軌道要素

1 61203U 24171D 26262.59580997 .00000417 00000-0 83001-5 0 9996
2 61203 53.1598 300.3941 0001156 79.4715 280.6433 15.69710935114852
Epoch: Sep 19, 2026 • Age: 35 hours

現在のステータス

高度 360.2 km
遠地点 / 近地点 N/A
速度 7.69 km/s
衛星直下点 2.55°N, 86.75°W
打ち上げ日 Sep 20, 2024
運用期間 1.9 years
タイプ internet

技術仕様

分類 Payload
質量 960.00 kg
乾燥質量 910.00 kg
長さ 0.30 m
スパン 29.00 m
形状 ? Box + pan
製造者 SPXS
バスタイプ Starlink V2MD
フェーズステータス In Orbit
所有者/国 SPXS/US

Most Searched